Gadsden, AL

5:30 AM CST on November 14, 2019 (GMT -0600)
Gadsden Municipal

Weather History for KGAD - May, 2019

Change the Weather History Date:

Tuesday, May 21, 2019

  Actual Average Record
Temperature  
Mean Temperature 74 °F -  
Max Temperature 90 °F 79 °F 98 °F (1941)
Min Temperature 59 °F 56 °F 39 °F (2002)
Cooling Degree Days 9    
Growing Degree Days 24 (Base 50)    
Moisture  
Dew Point 66 °F    
Average Humidity 81    
Maximum Humidity 100    
Minimum Humidity 46    
Precipitation  
Precipitation 0.00 in - - ()
Sea Level Pressure  
Sea Level Pressure 29.95 in    
Wind  
Wind Speed 1 mph ()    
Max Wind Speed 12 mph    
Max Gust Speed -    
Visibility 6.7 miles    
Events Fog    
Averages and records for this station are not official NWS values.
T = Trace of Precipitation, MM = Missing Value Source: Averaged Metar Reports

Daily Weather History Graph

Daily Weather History Graph

Search for Another Location

Airport or City:

Astronomy

May. 21, 2019 Rise Set
Actual Time 5:39 AM CDT 7:43 PM CDT
Civil Twilight 5:11 AM CDT 8:11 PM CDT
Nautical Twilight 4:37 AM CDT 8:45 PM CDT
Astronomical Twilight 4:00 AM CDT 9:22 PM CDT
Moon 10:36 PM CDT (5/21) 7:56 AM CDT (5/21)
Length of Visible Light 15h 00m
Length of Day
14h 03m
Waning Gibbous, 91% of the Moon is Illuminated
May 21
Waning Gibbous
May 26
Last Quarter
Jun 3
New
Jun 10
First Quarter
Jun 17
Full

Hourly Weather History & Observations

Time (CDT) Temp. Heat Index Dew Point Humidity Pressure Visibility Wind Dir Wind Speed Gust Speed Precip Events Conditions
12:56 AM 63.0 °F - - N/A% 29.96 in 10.0 mi Calm Calm - N/A   Clear
1:56 AM 63.0 °F - - N/A% 29.96 in 9.0 mi Calm Calm - N/A   Clear
2:31 AM 60.8 °F - - N/A% 29.95 in 1.0 mi Calm Calm - N/A   Clear
2:33 AM 60.8 °F - 60.8 °F 100% 29.95 in 0.5 mi Calm Calm - N/A Fog Fog
2:41 AM 60.8 °F - 60.8 °F 100% 29.95 in 0.2 mi Calm Calm - N/A Fog Fog
2:46 AM 60.8 °F - 60.8 °F 100% 29.95 in 0.8 mi Calm Calm - N/A   Clear
2:48 AM 60.8 °F - 60.8 °F 100% 29.95 in 1.8 mi Calm Calm - N/A   Clear
2:50 AM 60.8 °F - 60.8 °F 100% 29.95 in 5.0 mi Calm Calm - N/A   Clear
2:56 AM 61.0 °F - - N/A% 29.95 in 10.0 mi Calm Calm - N/A   Clear
3:10 AM 60.8 °F - 60.8 °F 100% 29.95 in 1.8 mi Calm Calm - N/A   Clear
3:26 AM 60.8 °F - - N/A% 29.95 in 3.0 mi Calm Calm - N/A   Clear
3:43 AM 62.6 °F - 60.8 °F 94% 29.95 in 1.8 mi Calm Calm - N/A   Clear
3:52 AM 60.8 °F - 60.8 °F 100% 29.95 in 4.0 mi Calm Calm - N/A   Clear
3:56 AM 62.1 °F - - N/A% 29.95 in 10.0 mi Calm Calm - N/A   Clear
4:56 AM 60.1 °F - 59.0 °F 96% 29.96 in 10.0 mi Calm Calm - N/A   Clear
5:11 AM 60.8 °F - 60.8 °F 100% 29.96 in 1.0 mi Calm Calm - N/A   Clear
5:22 AM 60.8 °F - - N/A% 29.96 in 1.5 mi Calm Calm - N/A   Clear
5:29 AM 59.0 °F - - N/A% 29.96 in 0.8 mi Calm Calm - N/A   Clear
5:36 AM 59.0 °F - - N/A% 29.96 in 0.5 mi Calm Calm - N/A Fog Fog
5:45 AM 59.0 °F - - N/A% 29.96 in 1.0 mi Calm Calm - N/A   Clear
5:47 AM 59.0 °F - - N/A% 29.96 in 2.0 mi Calm Calm - N/A   Clear
5:54 AM 59.0 °F - - N/A% 29.96 in 9.0 mi Calm Calm - N/A   Clear
5:56 AM 59.0 °F - - N/A% 29.97 in 9.0 mi Calm Calm - N/A   Clear
6:56 AM 64.0 °F - 64.0 °F 100% 29.98 in 10.0 mi Calm Calm - N/A   Clear
7:56 AM 70.0 °F - 69.1 °F 97% 29.98 in 10.0 mi Calm Calm - N/A   Clear
8:56 AM 75.0 °F - 71.1 °F 87% 29.99 in 10.0 mi Calm Calm - N/A   Clear
9:56 AM 80.1 °F 83.6 °F 71.1 °F 74% 29.98 in 10.0 mi ENE 3.5 mph - N/A   Clear
10:56 AM 82.9 °F 88.0 °F 72.0 °F 69% 29.96 in 10.0 mi Variable 3.5 mph - N/A   Clear
11:56 AM 86.0 °F 90.7 °F 70.0 °F 59% 29.95 in 10.0 mi South 8.1 mph - N/A   Clear
12:56 PM 87.1 °F 92.0 °F 70.0 °F 57% 29.93 in 10.0 mi Variable 6.9 mph - N/A   Mostly Cloudy
1:56 PM 88.0 °F 90.7 °F 66.9 °F 49% 29.92 in 10.0 mi South 11.5 mph - N/A   Scattered Clouds
2:56 PM 89.1 °F 92.1 °F 66.9 °F 48% 29.92 in 10.0 mi SSE 9.2 mph - N/A   Partly Cloudy
3:56 PM 89.1 °F 91.3 °F 66.0 °F 46% 29.90 in 10.0 mi South 6.9 mph - N/A   Clear
4:56 PM 89.1 °F 92.9 °F 68.0 °F 50% 29.91 in 10.0 mi SSW 4.6 mph - N/A   Clear
5:56 PM 86.0 °F 90.1 °F 69.1 °F 57% 29.90 in 10.0 mi SSW 3.5 mph - N/A   Scattered Clouds
6:56 PM 84.0 °F 89.0 °F 71.1 °F 65% 29.90 in 10.0 mi Calm Calm - N/A   Clear
7:56 PM 82.0 °F 84.9 °F 68.0 °F 62% 29.90 in 10.0 mi South 4.6 mph - N/A   Clear
8:56 PM 78.1 °F - 68.0 °F 71% 29.91 in 10.0 mi South 3.5 mph - N/A   Clear
9:56 PM 72.0 °F - 69.1 °F 91% 29.94 in 10.0 mi Calm Calm - N/A   Clear
10:56 PM 68.0 °F - 68.0 °F 100% 29.96 in 10.0 mi Calm Calm - N/A   Clear
11:56 PM 66.0 °F - 66.0 °F 100% 29.96 in 10.0 mi Calm Calm - N/A   Clear